Wind_Speed
25 22 24 18 19 17 17 17 17 9 9 18 17 8 10 5 1 3 5 6 6 7 6 5 5 5 5 4 3 6 8 10
23 28 27 24 15 19 18 17 16 11 16 11 23 15 11 9 5 3 3 2 3 4 4 5 5 5 5 6 6 7 8 10
29 33 30 26 28 21 19 17 14 12 13 16 23 24 12 12 9 8 8 9 5 5 4 4 6 7 7 6 6 6 7 8
28 33 31 29 25 24 21 22 19 19 13 16 14 17 13 13 13 11 10 12 12 7 7 5 5 6 8 9 8 7 6 8
31 30 32 30 30 27 25 23 24 20 20 16 16 17 17 16 19 15 15 14 15 13 11 10 7 7 8 10 11 10 10 12
36 32 27 33 36 32 28 28 26 26 20 24 25 22 20 20 25 19 17 14 18 16 15 14 13 11 10 10 10 11 11 13
33 32 28 35 30 29 35 31 29 22 27 25 15 23 24 22 29 25 21 17 19 19 18 17 17 16 15 13 12 13 13 15
35 34 34 31 31 31 31 32 29 30 26 23 25 24 30 27 28 24 21 21 22 20 20 20 17 18 18 14 11 11 15 17
36 29 31 37 35 33 26 32 29 26 27 26 22 22 25 28 28 27 26 26 23 24 23 16 15 17 17 17 15 17 21 22
36 30 37 35 33 35 33 29 27 25 23 24 27 25 23 22 27 31 26 26 24 26 26 21 22 20 23 21 25 27 25 23
34 37 33 33 29 27 36 36 32 27 24 27 23 19 20 24 25 31 25 26 27 28 28 29 28 30 33 32 33 33 35 34
32 35 35 33 24 31 26 33 28 29 29 25 23 22 19 24 21 29 36 31 33 36 36 31 33 35 36 37 40 41 44 43
37 31 32 27 21 24 32 31 23 26 26 32 25 24 25 29 32 33 35 42 37 42 34 37 37 42 42 42 46 49 51 50
34 32 32 25 33 27 33 31 33 33 31 35 32 29 32 33 32 31 39 49 42 42 40 40 45 47 45 47 51 53 55 56
29 30 32 30 31 37 36 32 30 35 37 39 36 36 32 29 25 27 39 46 44 42 49 48 54 54 53 55 58 61 63 63
38 37 40 38 38 36 32 34 32 31 32 32 34 34 33 28 25 24 28 36 41 46 49 52 55 57 60 66 68 71 59 63
46 53 42 39 35 37 35 36 34 34 34 34 35 36 34 32 32 29 27 29 34 40 42 42 48 53 57 62 59 65 66 73
44 46 34 36 39 36 33 32 34 34 35 37 36 37 39 40 38 36 36 37 38 40 42 44 47 51 54 60 69 76 74 64
35 36 40 44 40 38 38 39 39 39 39 41 43 43 43 43 37 36 37 38 38 41 44 48 54 62 63 59 72 76 70 61
Wind_Direction
230 224 212 204 234 218 229 232 229 261 251 246 251 261 242 216 97 25 41 39 9 356 354 358 25 25 36 29 3 15 6 351
230 229 225 223 209 238 231 219 226 246 251 259 260 273 266 222 233 274 299 343 30 4 360 356 5 22 18 33 39 25 19 7
224 226 222 226 207 220 214 232 232 235 269 259 259 266 245 220 225 262 285 298 301 335 346 10 11 20 26 24 30 34 24 16
226 236 234 223 235 230 226 220 218 220 239 221 239 245 224 219 225 254 276 282 277 279 295 313 344 2 6 11 17 23 32 16
230 223 237 229 224 228 237 229 234 227 226 261 247 225 217 217 242 265 274 280 278 272 268 280 293 316 332 343 347 352 357 2
226 232 230 233 231 225 223 227 229 234 235 238 255 256 226 227 252 257 269 275 277 279 264 266 274 283 296 307 321 328 334 343
230 218 226 238 248 244 234 232 227 227 237 222 249 282 245 232 256 263 265 281 294 279 275 270 267 274 274 286 301 307 305 310
235 230 225 226 235 238 241 232 229 223 225 243 247 238 267 248 257 267 273 276 287 278 280 281 272 274 274 281 289 309 296 307
233 232 229 233 224 229 228 229 228 227 228 229 229 230 245 265 245 257 263 272 274 271 277 274 272 279 271 271 286 295 290 317
233 233 231 233 231 233 233 229 236 228 225 237 232 229 246 244 261 263 252 250 261 267 272 267 271 273 284 281 274 284 292 305
229 232 234 240 233 235 235 235 233 233 232 229 237 244 252 239 236 258 260 259 268 270 271 278 278 277 279 273 282 289 292 295
230 230 235 237 233 230 221 237 234 232 234 239 237 248 251 255 252 256 258 257 262 267 269 270 273 276 279 279 282 285 286 287
223 231 236 223 236 227 231 230 232 237 240 235 238 243 251 244 242 236 248 257 262 263 266 268 267 274 274 275 281 284 287 288
221 227 234 227 222 209 214 224 214 215 215 222 223 241 263 276 273 251 245 251 256 264 266 260 267 271 275 274 277 280 281 283
224 231 226 227 221 220 220 223 219 221 224 231 248 258 267 268 265 250 243 248 253 257 254 257 261 268 271 276 277 278 279 282
215 223 221 222 222 223 224 229 232 232 237 242 250 261 269 267 257 260 257 252 257 252 254 258 262 270 274 275 276 275 274 284
214 228 205 217 223 228 230 232 238 240 242 247 254 261 267 274 272 273 262 258 258 258 262 271 272 272 271 281 283 285 285 287
211 220 229 225 229 235 240 239 239 241 244 250 257 263 270 273 280 271 273 269 268 269 276 275 276 277 282 289 285 276 281 297
208 214 225 232 236 242 244 246 248 250 251 255 262 266 273 277 273 269 269 274 278 278 276 267 258 250 258 264 274 304 303 304
Height
5950 5954 5955 5960 5966 5970 5972 5974 5975 5975 5972 5968 5968 5966 5965 5966 5965 5965 5964 5963 5962 5961 5959 5958 5956 5954 5953 5951 5949 5948 5947 5945
5951 5949 5950 5952 5962 5964 5965 5968 5970 5972 5970 5969 5963 5965 5964 5964 5964 5964 5964 5963 5963 5962 5960 5958 5956 5954 5953 5951 5949 5948 5946 5945
5945 5940 5945 5948 5949 5954 5961 5965 5967 5969 5969 5966 5962 5962 5962 5963 5963 5962 5961 5961 5961 5960 5959 5958 5956 5954 5953 5952 5950 5948 5947 5945
5936 5939 5939 5943 5948 5950 5954 5958 5961 5964 5967 5963 5960 5960 5960 5962 5961 5959 5959 5959 5959 5958 5958 5957 5955 5954 5953 5951 5949 5948 5947 5945
5929 5936 5934 5935 5942 5947 5950 5954 5956 5959 5962 5961 5957 5957 5958 5961 5957 5957 5956 5956 5956 5956 5955 5955 5954 5953 5952 5950 5949 5947 5945 5943
5918 5927 5934 5929 5931 5936 5942 5945 5950 5953 5958 5954 5952 5953 5954 5956 5952 5953 5953 5953 5952 5952 5952 5952 5951 5951 5950 5949 5947 5945 5943 5941
5911 5918 5925 5927 5927 5927 5929 5936 5941 5949 5951 5952 5951 5946 5947 5950 5946 5948 5949 5949 5948 5948 5948 5948 5948 5948 5947 5946 5944 5943 5941 5939
5901 5906 5912 5917 5922 5926 5924 5928 5932 5938 5943 5948 5946 5947 5940 5942 5940 5942 5944 5943 5944 5943 5943 5943 5943 5943 5942 5941 5940 5938 5937 5936
5890 5899 5903 5905 5911 5916 5920 5923 5924 5929 5935 5938 5940 5940 5938 5935 5935 5936 5938 5937 5938 5938 5938 5938 5938 5938 5937 5936 5935 5933 5933 5931
5883 5891 5889 5897 5903 5906 5910 5914 5917 5921 5925 5929 5929 5931 5933 5933 5931 5929 5932 5931 5931 5932 5932 5933 5933 5933 5932 5931 5929 5928 5928 5926
5876 5879 5885 5889 5893 5900 5901 5904 5910 5914 5917 5921 5922 5924 5925 5927 5929 5926 5925 5925 5925 5925 5925 5925 5925 5925 5925 5924 5923 5922 5920 5918
5867 5871 5874 5882 5889 5893 5896 5896 5902 5907 5910 5913 5914 5916 5920 5920 5921 5921 5918 5917 5917 5916 5917 5918 5917 5916 5916 5915 5914 5913 5910 5908
5857 5863 5868 5873 5882 5886 5886 5892 5898 5900 5903 5904 5907 5908 5907 5906 5908 5911 5912 5908 5908 5905 5910 5910 5908 5907 5907 5906 5905 5902 5900 5897
5851 5857 5861 5864 5869 5876 5878 5878 5884 5888 5892 5893 5894 5894 5894 5895 5898 5900 5904 5897 5899 5897 5900 5901 5898 5897 5898 5897 5894 5891 5888 5886
5846 5852 5852 5856 5859 5862 5867 5872 5876 5879 5882 5885 5886 5885 5888 5888 5889 5889 5889 5889 5889 5890 5888 5891 5887 5886 5886 5884 5880 5877 5873 5871
5836 5831 5839 5845 5850 5854 5859 5864 5867 5870 5873 5876 5877 5878 5880 5881 5881 5882 5881 5883 5880 5879 5880 5879 5877 5877 5875 5870 5867 5862 5855 5856
5820 5819 5828 5833 5840 5846 5852 5856 5859 5862 5865 5866 5868 5870 5871 5871 5872 5873 5874 5873 5872 5872 5871 5870 5868 5866 5861 5858 5854 5849 5844 5842
5807 5816 5818 5825 5832 5838 5843 5847 5850 5853 5856 5857 5859 5860 5861 5861 5861 5862 5863 5863 5862 5861 5861 5859 5857 5854 5849 5846 5841 5833 5836 5833
5799 5806 5815 5820 5824 5829 5834 5837 5840 5843 5846 5847 5848 5849 5850 5851 5851 5852 5853 5853 5852 5850 5850 5847 5841 5833 5831 5829 5825 5814 5814 5810